GW6616 Weather Reports


time (UTC)temp
F
wind
direction
speed
knots
gust
knots
rain 1hr
in
rain 24hr
in
rain mn
in
humidity
%
barometer
mb
20260905205007 88 173 0.0 1.7 0.00 0.02 0.02 63 1012.4
20260905204514 88 173 0.0 1.7 0.00 0.02 0.02 67 1012.5
20260905204011 87 160 0.9 1.7 0.00 0.02 0.02 63 1012.5
20260905203513 87 160 0.0 1.7 0.00 0.02 0.02 63 1012.5
20260905203024 87 133 0.0 1.7 0.01 0.02 0.02 68 1012.5
20260905202518 86 132 0.0 1.7 0.02 0.02 0.02 69 1012.6
20260905202014 86 224 0.0 1.7 0.02 0.02 0.02 71 1012.7
20260905201526 86 224 0.0 1.7 0.02 0.02 0.02 69 1012.7
20260905201015 86 334 0.0 1.7 0.02 0.02 0.02 71 1012.7
20260905200515 82 148 0.0 1.7 0.02 0.02 0.02 81 1012.8
20260905200032 81 166 0.9 2.6 0.02 0.02 0.02 79 1013.0
20260905195519 81 136 0.9 2.6 0.02 0.02 0.02 78 1013.1
20260905195008 82 229 0.9 2.6 0.02 0.02 0.02 69 1013.2
20260905194514 84 316 0.9 4.3 0.02 0.02 0.02 70 1013.3
20260905194012 83 284 1.7 4.3 0.02 0.02 0.02 70 1013.7
20260905193507 84 157 1.7 1.7 0.02 0.02 0.02 77 1013.4
20260905193019 86 311 0.0 3.5 0.01 0.01 0.01 70 1013.3
20260905192513 88 352 0.9 3.5 0.00 0.00 0.00 66 1013.3
20260905192014 89 326 0.9 6.1 0.00 0.00 0.00 67 1013.3
20260905191528 91 332 0.9 6.1 0.00 0.00 0.00 58 1013.1
20260905191016 92 311 1.7 6.1 0.00 0.00 0.00 56 1013.2
20260905190517 93 223 1.7 4.3 0.00 0.00 0.00 58 1013.2
20260905190029 93 20 0.9 3.5 0.00 0.00 0.00 64 1013.1
20260905185517 91 302 0.0 1.7 0.00 0.00 0.00 60 1013.0
20260905185014 90 194 0.0 1.7 0.00 0.00 0.00 61 1013.2
20260905184550 91 302 0.9 1.7 0.00 0.00 0.00 62 1013.2
20260905184008 91 157 0.9 1.7 0.00 0.00 0.00 65 1013.4
20260905183511 91 190 0.0 1.7 0.00 0.00 0.00 63 1013.5
20260905183036 91 15 0.9 1.7 0.00 0.00 0.00 57 1013.6
20260905182513 91 315 0.9 1.7 0.00 0.00 0.00 58 1013.6
20260905182014 91 160 0.9 2.6 0.00 0.00 0.00 60 1013.7
20260905181524 91 298 0.9 2.6 0.00 0.00 0.00 63 1013.8
20260905181013 91 143 0.9 2.6 0.00 0.00 0.00 59 1013.9
20260905180516 90 67 0.9 2.6 0.00 0.00 0.00 64 1014.0
20260905180033 90 95 0.9 2.6 0.00 0.00 0.00 59 1014.1
20260905175514 90 125 0.0 2.6 0.00 0.00 0.00 69 1014.2
20260905175018 90 325 0.9 2.6 0.00 0.00 0.00 61 1014.2
20260905174529 90 119 0.9 1.7 0.00 0.00 0.00 59 1014.2
20260905174020 90 22 0.9 1.7 0.00 0.00 0.00 62 1014.3
20260905173510 90 323 0.0 2.6 0.00 0.00 0.00 64 1014.2
20260905173013 90 138 0.0 2.6 0.00 0.00 0.00 62 1014.2
20260905172513 89 286 0.9 3.5 0.00 0.00 0.00 63 1014.2
20260905172012 89 55 1.7 3.5 0.00 0.00 0.00 62 1014.2
20260905171521 89 150 0.9 2.6 0.00 0.00 0.00 64 1014.2
20260905171013 88 189 0.9 2.6 0.00 0.00 0.00 64 1014.2
20260905170512 88 203 0.9 2.6 0.00 0.00 0.00 64 1014.2
20260905170026 87 207 0.9 2.6 0.00 0.00 0.00 67 1014.3
20260905165516 88 213 0.9 2.6 0.00 0.00 0.00 66 1014.4
20260905165017 87 12 0.9 2.6 0.00 0.00 0.00 62 1014.4
20260905164533 87 276 1.7 2.6 0.00 0.00 0.00 62 1014.5
20260905164015 87 26 0.9 2.6 0.00 0.00 0.00 63 1014.5
20260905163515 87 21 0.0 4.3 0.00 0.00 0.00 67 1014.5
20260905163031 86 133 0.0 4.3 0.00 0.00 0.00 65 1014.5
20260905162511 86 267 0.9 2.6 0.00 0.00 0.00 67 1014.5
20260905162010 85 325 0.0 1.7 0.00 0.00 0.00 69 1014.4
20260905161517 83 196 0.0 1.7 0.00 0.00 0.00 69 1014.6
20260905161010 84 317 0.0 1.7 0.00 0.00 0.00 70 1014.8
20260905160514 85 275 0.9 1.7 0.00 0.00 0.00 66 1014.8
20260905160027 85 261 0.0 2.6 0.00 0.00 0.00 69 1014.5
20260905155516 86 240 0.9 4.3 0.00 0.00 0.00 68 1014.4
20260905155015 85 231 0.0 4.3 0.00 0.00 0.00 67 1014.5
20260905154540 85 250 0.9 4.3 0.00 0.00 0.00 70 1014.6
20260905154017 86 173 0.9 2.6 0.00 0.00 0.00 68 1014.9
20260905153518 86 40 0.9 2.6 0.00 0.00 0.00 68 1014.9
20260905153031 86 22 0.9 2.6 0.00 0.00 0.00 70 1014.9
20260905152519 85 328 0.9 3.5 0.00 0.00 0.00 68 1014.8
20260905152020 85 138 0.9 3.5 0.00 0.00 0.00 71 1014.6
20260905151516 84 82 0.9 3.5 0.00 0.00 0.00 68 1014.7
20260905151015 84 223 0.9 3.5 0.00 0.00 0.00 70 1014.5
20260905150514 84 152 0.0 3.5 0.00 0.00 0.00 72 1014.5
20260905150023 84 182 0.9 2.6 0.00 0.00 0.00 71 1014.8
20260905145513 83 118 0.9 3.5 0.00 0.00 0.00 70 1015.1
20260905145016 83 275 0.0 3.5 0.00 0.00 0.00 71 1015.1
20260905144534 83 157 0.9 1.7 0.00 0.00 0.00 71 1014.9
20260905144017 83 164 0.0 1.7 0.00 0.00 0.00 72 1014.9
20260905143519 83 28 0.0 2.6 0.00 0.00 0.00 74 1014.9
20260905143033 82 105 0.9 2.6 0.00 0.00 0.00 76 1015.0
20260905142515 82 238 0.0 2.6 0.00 0.00 0.00 79 1015.0
20260905142020 81 155 0.0 1.7 0.00 0.00 0.00 79 1014.9
20260905141534 80 196 0.0 1.7 0.00 0.00 0.00 80 1014.8
20260905141019 79 209 0.0 1.7 0.00 0.00 0.00 80 1014.8
20260905140510 79 146 0.0 1.7 0.00 0.00 0.00 80 1014.9
20260905140017 79 142 0.9 1.7 0.00 0.00 0.00 80 1014.8
20260905135512 79 158 0.0 1.7 0.00 0.00 0.00 83 1014.9
20260905135017 78 136 0.0 1.7 0.00 0.00 0.00 83 1014.8
20260905134527 78 138 0.9 1.7 0.00 0.00 0.00 84 1014.7
20260905134019 78 259 0.0 1.7 0.00 0.00 0.00 83 1014.5
20260905133514 78 259 0.0 1.7 0.00 0.00 0.00 83 1014.6
20260905133041 77 258 0.0 1.7 0.00 0.00 0.00 83 1014.6
20260905132518 77 259 0.0 1.7 0.00 0.00 0.00 84 1014.5
20260905132016 76 259 0.0 0.9 0.00 0.00 0.00 84 1014.5
20260905131538 76 259 0.0 1.7 0.00 0.00 0.00 84 1014.5
20260905131018 76 259 0.0 1.7 0.00 0.00 0.00 84 1014.5
20260905130518 76 259 0.0 1.7 0.00 0.00 0.00 84 1014.4
20260905130033 75 259 0.0 1.7 0.00 0.00 0.00 84 1014.4
20260905125510 75 259 0.0 0.0 0.00 0.00 0.00 84 1014.4
20260905125014 75 259 0.0 0.0 0.00 0.00 0.00 85 1014.5
20260905124527 75 259 0.0 0.0 0.00 0.00 0.00 85 1014.4
20260905124017 75 259 0.0 0.0 0.00 0.00 0.00 85 1014.4
20260905123517 75 259 0.0 0.0 0.00 0.00 0.00 85 1014.3
20260905123030 74 259 0.0 0.0 0.00 0.00 0.00 85 1014.3
20260905122516 74 259 0.0 0.0 0.00 0.00 0.00 85 1014.2
20260905122017 74 259 0.0 0.0 0.00 0.00 0.00 85 1014.1
20260905121531 74 259 0.0 0.0 0.00 0.00 0.00 85 1014.0
20260905121018 74 259 0.0 0.0 0.00 0.00 0.00 85 1014.1
20260905120518 74 259 0.0 1.7 0.00 0.00 0.00 85 1014.1
20260905120040 74 259 0.0 1.7 0.00 0.00 0.00 85 1014.1
20260905115516 74 259 0.0 1.7 0.00 0.00 0.00 85 1014.1
20260905115014 74 259 0.0 1.7 0.00 0.00 0.00 86 1014.1
20260905114524 74 259 0.0 1.7 0.00 0.00 0.00 85 1014.0
20260905114015 73 259 0.0 1.7 0.00 0.00 0.00 85 1014.1
20260905113516 74 259 0.0 0.9 0.00 0.00 0.00 85 1014.1
20260905113042 74 259 0.0 0.0 0.00 0.00 0.00 85 1014.0
20260905112518 74 259 0.0 0.0 0.00 0.00 0.00 85 1013.9
20260905112018 74 259 0.0 0.0 0.00 0.00 0.00 85 1014.0
20260905111551 74 259 0.0 0.0 0.00 0.00 0.00 85 1014.0
20260905111017 74 259 0.0 0.0 0.00 0.00 0.00 85 1014.0
20260905110506 74 259 0.0 0.0 0.00 0.00 0.00 85 1014.0
20260905110031 74 259 0.0 0.9 0.00 0.00 0.00 85 1013.9
20260905105511 73 259 0.0 0.9 0.00 0.00 0.00 85 1014.0
20260905105010 73 259 0.0 1.7 0.00 0.00 0.00 84 1013.9
20260905104519 74 259 0.0 1.7 0.00 0.00 0.00 85 1013.9
20260905104014 74 259 0.0 0.9 0.00 0.00 0.00 85 1013.8
20260905103519 74 259 0.0 1.7 0.00 0.00 0.00 85 1013.8
20260905103028 74 259 0.0 1.7 0.00 0.00 0.00 85 1013.9
20260905102516 74 259 0.0 0.0 0.00 0.00 0.00 85 1013.9
20260905102015 75 259 0.0 1.7 0.00 0.00 0.00 85 1013.9
20260905101546 75 259 0.0 1.7 0.00 0.00 0.00 85 1013.9
20260905101014 75 259 0.0 1.7 0.00 0.00 0.00 85 1013.9
20260905100519 74 259 0.0 1.7 0.00 0.00 0.00 85 1013.9
20260905100031 74 259 0.0 1.7 0.00 0.00 0.00 84 1013.9
20260905095514 75 259 0.0 1.7 0.00 0.00 0.00 85 1013.9
20260905095012 75 259 0.0 1.7 0.00 0.00 0.00 85 1013.9
20260905094519 75 259 0.0 0.0 0.00 0.00 0.00 84 1013.8
20260905094011 75 259 0.0 0.0 0.00 0.00 0.00 85 1013.8
20260905093514 75 259 0.0 0.0 0.00 0.00 0.00 84 1013.8
20260905093025 75 259 0.0 0.0 0.00 0.00 0.00 85 1013.9
20260905092513 75 259 0.0 1.7 0.00 0.00 0.00 85 1013.8
20260905092016 75 259 0.0 1.7 0.00 0.00 0.00 85 1013.8
20260905091528 75 259 0.0 1.7 0.00 0.00 0.00 85 1013.7
20260905091019 75 259 0.0 1.7 0.00 0.00 0.00 85 1013.8
20260905090518 74 259 0.0 1.7 0.00 0.00 0.00 85 1013.8
20260905090035 74 259 0.0 1.7 0.00 0.00 0.00 85 1013.6
20260905085521 74 259 0.0 1.7 0.00 0.00 0.00 84 1013.5
20260905085016 74 259 0.0 0.0 0.00 0.00 0.00 85 1013.5
20260905084516 75 259 0.0 0.0 0.00 0.00 0.00 85 1013.5
20260905084011 75 259 0.0 0.0 0.00 0.00 0.00 85 1013.4
20260905083511 75 259 0.0 0.0 0.00 0.00 0.00 85 1013.3
20260905083030 75 259 0.0 0.0 0.00 0.00 0.00 85 1013.3
20260905082514 75 259 0.0 0.0 0.00 0.00 0.00 85 1013.4
20260905082014 75 259 0.0 1.7 0.00 0.00 0.00 85 1013.2
20260905081528 75 259 0.0 1.7 0.00 0.00 0.00 85 1013.2
20260905081016 75 259 0.0 1.7 0.00 0.00 0.00 86 1013.3
20260905080518 74 259 0.0 1.7 0.00 0.00 0.00 85 1013.2
20260905080038 74 259 0.0 1.7 0.00 0.00 0.00 85 1013.3
20260905075515 75 259 0.0 1.7 0.00 0.00 0.00 85 1013.3
20260905075015 75 259 0.0 1.7 0.00 0.00 0.00 85 1013.3
20260905074535 75 259 0.0 1.7 0.00 0.00 0.00 85 1013.3
20260905074021 75 259 0.0 0.9 0.00 0.00 0.00 85 1013.3
20260905073512 75 259 0.0 0.0 0.00 0.00 0.00 85 1013.3
20260905073023 75 259 0.0 0.9 0.00 0.00 0.00 85 1013.3
20260905072512 75 259 0.0 0.9 0.00 0.00 0.00 85 1013.2
20260905072015 75 259 0.0 0.0 0.00 0.00 0.00 85 1013.3
20260905071532 75 259 0.0 1.7 0.00 0.00 0.00 85 1013.4
20260905071013 75 259 0.0 1.7 0.00 0.00 0.00 85 1013.5
20260905070515 74 259 0.0 1.7 0.00 0.00 0.00 85 1013.6
20260905070031 75 259 0.9 1.7 0.00 0.00 0.00 84 1013.7
20260905065520 76 183 0.0 0.0 0.00 0.00 0.00 85 1013.7
20260905065014 76 183 0.0 0.0 0.00 0.00 0.00 85 1013.7
20260905064533 76 183 0.0 0.0 0.00 0.00 0.00 85 1013.8
20260905064020 76 183 0.0 0.0 0.00 0.00 0.00 85 1013.8
20260905063520 76 183 0.0 0.0 0.00 0.00 0.00 85 1013.7
20260905063034 76 183 0.0 1.7 0.00 0.00 0.00 85 1013.8
20260905062516 76 183 0.0 1.7 0.00 0.00 0.00 85 1013.8
20260905062013 76 183 0.0 1.7 0.00 0.00 0.00 85 1013.8
20260905061530 76 183 0.0 0.9 0.00 0.00 0.00 85 1013.8
20260905061013 76 183 0.0 0.9 0.00 0.00 0.00 85 1013.9
20260905060515 76 183 0.0 0.0 0.00 0.00 0.00 85 1013.9
20260905060030 76 183 0.0 0.0 0.00 0.00 0.00 85 1013.9
20260905055519 76 183 0.0 0.0 0.00 0.00 0.00 84 1013.9
20260905055007 76 183 0.0 0.0 0.00 0.00 0.00 84 1013.9
20260905054510 77 183 0.0 0.0 0.00 0.00 0.00 85 1013.9
20260905054009 77 183 0.0 0.9 0.00 0.00 0.00 84 1014.0
20260905053508 77 183 0.0 0.9 0.00 0.00 0.00 84 1014.1
20260905053017 77 183 0.0 0.0 0.00 0.00 0.00 84 1014.1
20260905052511 77 183 0.0 0.0 0.00 0.00 0.00 84 1014.0
20260905052011 77 183 0.0 0.0 0.00 0.00 0.00 84 1014.0
20260905051533 77 183 0.0 1.7 0.00 0.00 0.00 84 1014.0
20260905051013 77 183 0.0 1.7 0.00 0.00 0.00 85 1014.1
20260905050515 77 183 0.0 1.7 0.00 0.00 0.00 85 1014.1
20260905050009 77 183 0.0 0.0 0.00 0.00 0.00 85 1014.1
20260905045503 76 183 0.0 0.0 0.00 0.00 0.00 85 1014.1
20260905045006 76 183 0.0 1.7 0.00 0.00 0.00 85 1014.1
20260905044509 76 183 0.0 1.7 0.00 0.00 0.00 84 1014.2
20260905044009 77 178 0.0 1.7 0.00 0.00 0.00 84 1014.2
20260905043507 77 178 0.0 1.7 0.00 0.00 0.00 84 1014.2
20260905043014 77 178 0.0 1.7 0.00 0.00 0.00 84 1014.2
20260905042515 78 178 0.0 1.7 0.00 0.00 0.00 84 1014.1
20260905042012 78 178 0.0 1.7 0.00 0.00 0.00 84 1014.2
20260905041520 78 178 0.0 0.0 0.00 0.00 0.00 84 1014.4
20260905041013 78 178 0.0 0.0 0.00 0.00 0.00 84 1014.4
20260905040514 78 178 0.0 1.7 0.00 0.00 0.00 84 1014.4
20260905040031 78 178 0.0 1.7 0.00 0.00 0.00 84 1014.5
20260905035513 78 178 0.0 0.9 0.00 0.00 0.00 84 1014.5
20260905035007 78 178 0.0 0.9 0.00 0.00 0.00 83 1014.6
20260905034504 78 178 0.0 1.7 0.00 0.00 0.00 83 1014.5
20260905034005 78 178 0.0 1.7 0.00 0.00 0.00 83 1014.4
20260905033510 78 178 0.0 1.7 0.00 0.00 0.00 83 1014.5
20260905033025 78 178 0.0 1.7 0.00 0.00 0.00 83 1014.5
20260905032509 79 178 0.0 0.0 0.00 0.00 0.00 83 1014.6
20260905032009 79 178 0.0 0.0 0.00 0.00 0.00 83 1014.6
20260905031518 79 178 0.0 0.0 0.00 0.00 0.00 83 1014.7
20260905031012 79 178 0.0 0.0 0.00 0.00 0.00 82 1014.7
20260905030514 79 178 0.0 0.0 0.00 0.00 0.00 83 1014.6
20260905030028 79 178 0.0 0.0 0.00 0.00 0.00 83 1014.6
20260905025519 79 178 0.0 0.0 0.00 0.00 0.00 83 1014.7
20260905025017 79 178 0.0 0.0 0.00 0.00 0.00 83 1014.6
20260905024528 79 178 0.0 0.0 0.00 0.00 0.00 83 1014.5
20260905024006 79 178 0.0 0.0 0.00 0.00 0.00 83 1014.5
20260905023506 79 178 0.0 0.0 0.00 0.00 0.00 82 1014.4
20260905023010 79 178 0.0 0.0 0.00 0.00 0.00 81 1014.5
20260905022507 80 178 0.0 0.9 0.00 0.00 0.00 81 1014.4
20260905022010 80 178 0.0 0.9 0.00 0.00 0.00 81 1014.4
20260905021516 80 178 0.0 0.0 0.00 0.00 0.00 81 1014.4
20260905021013 80 178 0.0 1.7 0.00 0.00 0.00 81 1014.4
20260905020516 80 178 0.0 1.7 0.00 0.00 0.00 81 1014.4
20260905020020 80 178 0.0 1.7 0.00 0.00 0.00 81 1014.5
20260905015514 80 178 0.0 1.7 0.00 0.00 0.00 80 1014.4
20260905015015 80 178 0.0 0.9 0.00 0.00 0.00 80 1014.3
20260905014525 80 178 0.0 1.7 0.00 0.00 0.00 80 1014.3
20260905014014 80 178 0.0 1.7 0.00 0.00 0.00 79 1014.3
20260905013518 81 178 0.0 1.7 0.00 0.00 0.00 78 1014.2
20260905013014 81 178 0.0 0.0 0.00 0.00 0.00 78 1014.2
20260905012506 81 180 0.0 0.0 0.00 0.00 0.00 78 1014.2
20260905012012 81 180 0.0 0.0 0.00 0.00 0.00 78 1014.0
20260905011511 81 180 0.0 0.0 0.00 0.00 0.00 77 1013.9
20260905011013 82 180 0.0 0.0 0.00 0.00 0.00 77 1014.0
20260905010512 82 180 0.0 0.0 0.00 0.00 0.00 76 1014.0
20260905010023 82 180 0.0 0.0 0.00 0.00 0.00 76 1013.9
20260905005513 82 180 0.0 0.0 0.00 0.00 0.00 76 1013.9
20260905005016 82 180 0.0 0.0 0.00 0.00 0.00 75 1013.8
20260905004526 83 180 0.0 0.0 0.00 0.00 0.00 75 1013.7
20260905004014 83 180 0.0 0.0 0.00 0.00 0.00 74 1013.6
20260905003514 83 180 0.0 0.0 0.00 0.00 0.00 74 1013.6
20260905003032 83 180 0.0 0.0 0.00 0.00 0.00 73 1013.6
20260905002516 84 180 0.0 0.0 0.00 0.00 0.00 72 1013.5
20260905002007 84 180 0.0 0.0 0.00 0.00 0.00 70 1013.5
20260905001509 84 180 0.0 0.9 0.00 0.00 0.00 69 1013.4
20260905001008 84 180 0.0 1.7 0.00 0.00 0.00 70 1013.4
20260905000510 85 180 0.0 1.7 0.00 0.00 0.00 69 1013.5
20260905000016 85 160 0.0 1.7 0.00 0.00 0.00 67 1013.5
20260904235511 86 160 0.0 1.7 0.00 0.00 0.00 67 1013.5
20260904235012 86 160 0.0 1.7 0.00 0.00 0.00 66 1013.6
20260904234524 87 160 0.0 0.0 0.00 0.00 0.00 64 1013.7
20260904234017 87 160 0.0 0.0 0.00 0.00 0.00 64 1013.6
20260904233516 87 160 0.0 0.0 0.00 0.00 0.00 65 1013.7
20260904233030 87 160 0.0 0.0 0.00 0.00 0.00 64 1013.7
20260904232518 88 160 0.0 1.7 0.00 0.00 0.00 63 1013.6
20260904232016 88 160 0.0 1.7 0.00 0.00 0.00 63 1013.6
20260904231538 88 160 0.0 1.7 0.00 0.00 0.00 62 1013.7
20260904231008 89 160 0.0 1.7 0.00 0.00 0.00 62 1013.6
20260904230511 89 160 0.0 1.7 0.00 0.00 0.00 61 1013.5
20260904230025 89 160 0.0 1.7 0.00 0.00 0.00 61 1013.5
20260904225510 89 142 0.0 1.7 0.00 0.00 0.00 62 1013.5
20260904225012 90 142 0.0 1.7 0.00 0.00 0.00 62 1013.5
20260904224524 90 142 0.0 1.7 0.00 0.00 0.00 61 1013.5
20260904224012 90 219 0.0 1.7 0.00 0.00 0.00 58 1013.5
20260904223515 91 219 0.0 1.7 0.00 0.00 0.00 58 1013.5
20260904223006 91 219 0.0 1.7 0.00 0.00 0.00 59 1013.5
20260904222505 91 219 0.0 1.7 0.00 0.00 0.00 59 1013.5
20260904222005 93 219 0.9 1.7 0.00 0.00 0.00 54 1013.5
20260904221511 93 327 0.0 2.6 0.00 0.00 0.00 51 1013.6
20260904221007 93 309 0.9 3.5 0.00 0.00 0.00 50 1013.6
20260904220506 93 266 0.9 3.5 0.00 0.00 0.00 51 1013.6
20260904220012 93 317 0.0 1.7 0.00 0.00 0.00 54 1013.7
20260904215509 93 265 0.0 1.7 0.00 0.00 0.00 55 1013.8
20260904215011 93 188 0.0 1.7 0.00 0.00 0.00 53 1013.7
20260904214517 93 341 0.9 3.5 0.00 0.00 0.00 49 1013.7
20260904214013 94 324 0.0 3.5 0.00 0.00 0.00 52 1013.9
20260904213513 94 316 1.7 3.5 0.00 0.00 0.00 48 1013.9
20260904213030 94 284 0.9 2.6 0.00 0.00 0.00 51 1013.9
20260904212516 94 319 0.9 2.6 0.00 0.00 0.00 49 1013.9
20260904212003 94 301 0.9 2.6 0.00 0.00 0.00 50 1014.0
20260904211505 94 329 0.9 1.7 0.00 0.00 0.00 50 1014.0
20260904211004 94 339 0.0 3.5 0.00 0.00 0.00 50 1014.0
20260904210512 94 5 0.0 5.2 0.00 0.00 0.00 49 1014.0
20260904210010 94 339 1.7 5.2 0.00 0.00 0.00 49 1014.1
20260904205510 94 333 1.7 5.2 0.00 0.00 0.00 51 1014.1